{"data":{"norad_id":65146,"epoch":"2026-05-25T02:02:01.271616Z","epoch_age_seconds":64376,"freshness":"FRESH","line1":"1 65146U 25171Q   26145.08473694  .00002046  00000+0  29725-3 0  9996","line2":"2 65146  51.9010 182.8055 0000296  53.9244 306.1746 14.79941125 44179","mean_motion":14.79941125,"eccentricity":2.96e-5,"inclination_deg":51.901,"raan_deg":182.8055,"arg_perigee_deg":53.9244,"mean_anomaly_deg":306.1746,"bstar":0.00029725,"rev_number":4417,"period_min":97.301167977206,"perigee_km":629.30255433009,"apogee_km":629.71740703135,"semimajor_km":7007.6469806807,"source":"CELESTRAK","updated_at":"2026-05-25T13:38:05.168818Z"}}